Terug naar catalogus

STARLINK-1456

ActiefCommunicatieVLEO
NORAD 45673·PAYLOAD·🇺🇸 United States

Gelanceerd Jun 4, 2020 vanaf Cape Canaveral Space Force Station

Loading…

Volgende Passages (komende 24 uur)

TLE

VersSource: CelesTrak SupGP

Epoch: Sep 15, 2026, 00:56 UTC

1 45673C 20035S   26258.03937500  .00080657  00000+0  40404-3 0  2583
2 45673  53.0375 195.3080 0005893  69.1791  43.7993 15.81003283    11

Volg STARLINK-1456 in realtime met AllMySat

Download on the App Store